TimePST,TemperatureF,Dew PointF,Humidity,Sea Level PressureIn,VisibilityMPH,Wind Direction,Wind SpeedMPH,Gust SpeedMPH,PrecipitationIn,Events,Conditions,WindDirDegrees,DateUTC
12:54 AM,46.9,41.0,80,30.22,10.0,East,4.6,-,N/A,,Clear,80,2012-11-19 08:54:00
1:54 AM,48.0,41.0,77,30.23,10.0,ENE,3.5,-,N/A,,Scattered Clouds,70,2012-11-19 09:54:00
2:54 AM,48.0,41.0,77,30.24,10.0,East,6.9,-,N/A,,Mostly Cloudy,100,2012-11-19 10:54:00
3:54 AM,46.9,41.0,80,30.23,10.0,East,6.9,-,N/A,,Overcast,90,2012-11-19 11:54:00
4:54 AM,48.0,39.9,74,30.24,10.0,East,9.2,-,N/A,,Clear,90,2012-11-19 12:54:00
5:54 AM,46.0,39.9,79,30.25,10.0,East,4.6,-,N/A,,Clear,90,2012-11-19 13:54:00
6:54 AM,46.9,39.9,77,30.26,10.0,East,5.8,-,N/A,,Clear,100,2012-11-19 14:54:00
7:54 AM,51.1,41.0,68,30.27,10.0,East,6.9,-,N/A,,Clear,80,2012-11-19 15:54:00
8:54 AM,57.9,43.0,58,30.28,10.0,ENE,3.5,-,N/A,,Clear,60,2012-11-19 16:54:00
9:54 AM,60.1,46.9,62,30.29,10.0,WNW,3.5,-,N/A,,Clear,290,2012-11-19 17:54:00
10:54 AM,61.0,43.0,52,30.28,10.0,WNW,5.8,-,N/A,,Clear,290,2012-11-19 18:54:00
11:54 AM,61.0,45.0,56,30.28,10.0,North,5.8,-,N/A,,Clear,350,2012-11-19 19:54:00
12:54 PM,61.0,48.0,62,30.27,10.0,WNW,4.6,-,N/A,,Clear,300,2012-11-19 20:54:00
1:54 PM,63.0,48.9,60,30.26,10.0,NW,4.6,-,N/A,,Clear,320,2012-11-19 21:54:00
2:54 PM,64.0,46.9,54,30.25,10.0,Calm,Calm,-,N/A,,Clear,0,2012-11-19 22:54:00
3:54 PM,62.1,48.0,60,30.25,10.0,SW,6.9,-,N/A,,Clear,220,2012-11-19 23:54:00
4:54 PM,60.1,48.0,64,30.25,10.0,South,4.6,-,N/A,,Clear,180,2012-11-20 00:54:00
5:54 PM,57.0,48.0,72,30.25,10.0,ENE,5.8,-,N/A,,Clear,70,2012-11-20 01:54:00
7:54 PM,54.0,48.9,83,30.24,10.0,East,6.9,-,N/A,,Clear,90,2012-11-20 03:54:00
8:54 PM,53.1,48.0,83,30.25,10.0,Calm,Calm,-,N/A,,Clear,0,2012-11-20 04:54:00
9:54 PM,51.1,46.0,83,30.25,10.0,East,3.5,-,N/A,,Clear,90,2012-11-20 05:54:00
10:54 PM,50.0,46.0,86,30.25,10.0,East,5.8,-,N/A,,Mostly Cloudy,80,2012-11-20 06:54:00
11:54 PM,48.9,45.0,86,30.25,10.0,East,3.5,-,N/A,,Clear,100,2012-11-20 07:54:00